Time,TemperatureF,DewpointF,PressureIn,WindDirection,WindDirectionDegrees,WindSpeedMPH,WindSpeedGustMPH,Humidity,HourlyPrecipIn,Conditions,Clouds,dailyrainin,SoftwareType,DateUTC
2013-09-06 00:14:00,71.0,65.9,30.08,NW,315,0.0,8.0,84,0.00,,,-99.99,Weather View 32 v60,2013-09-06 05:14:00,
2013-09-06 00:29:00,71.0,65.9,30.08,SW,225,0.0,8.0,84,0.00,,,-99.99,Weather View 32 v60,2013-09-06 05:29:00,
2013-09-06 00:44:00,71.0,65.9,30.08,SW,225,0.0,8.0,84,0.00,,,-99.99,Weather View 32 v60,2013-09-06 05:44:00,
2013-09-06 00:46:00,71.0,65.9,30.08,SW,225,0.0,8.0,84,0.00,,,-99.99,Weather View 32 v60,2013-09-06 05:46:00,
2013-09-06 00:59:00,71.0,65.9,30.08,WSW,247,2.0,6.0,84,0.00,,,-99.99,Weather View 32 v60,2013-09-06 05:59:00,
2013-09-06 01:14:00,70.0,64.9,30.08,WSW,247,2.0,6.0,84,0.00,,,-99.99,Weather View 32 v60,2013-09-06 06:14:00,
2013-09-06 01:29:00,70.0,64.9,30.08,SW,225,0.0,6.0,84,0.00,,,-99.99,Weather View 32 v60,2013-09-06 06:29:00,
2013-09-06 01:44:00,70.0,64.9,30.08,WSW,247,0.0,4.0,84,0.00,,,-99.99,Weather View 32 v60,2013-09-06 06:44:00,
2013-09-06 01:59:00,70.0,64.9,30.08,ESE,112,0.0,4.0,84,0.00,,,-99.99,Weather View 32 v60,2013-09-06 06:59:00,
2013-09-06 02:14:00,69.0,63.6,30.08,SW,225,0.0,4.0,83,0.00,,,-99.99,Weather View 32 v60,2013-09-06 07:14:00,
2013-09-06 02:29:00,69.0,63.6,30.08,WNW,292,0.0,2.0,83,0.00,,,-99.99,Weather View 32 v60,2013-09-06 07:29:00,
2013-09-06 02:44:00,69.0,63.6,30.08,SSE,157,0.0,5.0,83,0.00,,,-99.99,Weather View 32 v60,2013-09-06 07:44:00,
2013-09-06 02:59:00,69.0,63.6,30.08,SW,225,0.0,5.0,83,0.00,,,-99.99,Weather View 32 v60,2013-09-06 07:59:00,
2013-09-06 03:14:00,69.0,63.6,30.08,SW,225,0.0,5.0,83,0.00,,,-99.99,Weather View 32 v60,2013-09-06 08:14:00,
2013-09-06 03:29:00,69.0,63.6,30.08,SSE,157,0.0,5.0,83,0.00,,,-99.99,Weather View 32 v60,2013-09-06 08:29:00,
2013-09-06 03:44:00,69.0,63.9,30.08,SW,225,1.0,5.0,84,0.00,,,-99.99,Weather View 32 v60,2013-09-06 08:44:00,
2013-09-06 03:59:00,69.0,63.9,30.08,SW,225,0.0,5.0,84,0.00,,,-99.99,Weather View 32 v60,2013-09-06 08:59:00,
2013-09-06 04:14:00,68.0,63.0,30.08,WSW,247,0.0,5.0,84,0.00,,,-99.99,Weather View 32 v60,2013-09-06 09:14:00,
2013-09-06 04:29:00,68.0,63.0,30.08,SW,225,0.0,5.0,84,0.00,,,-99.99,Weather View 32 v60,2013-09-06 09:29:00,
2013-09-06 04:44:00,68.0,63.3,30.08,SW,225,0.0,5.0,85,0.00,,,-99.99,Weather View 32 v60,2013-09-06 09:44:00,
2013-09-06 04:59:00,68.0,63.3,30.08,WSW,247,0.0,5.0,85,0.00,,,-99.99,Weather View 32 v60,2013-09-06 09:59:00,
2013-09-06 05:14:00,68.0,63.3,30.08,WNW,292,0.0,5.0,85,0.00,,,-99.99,Weather View 32 v60,2013-09-06 10:14:00,
2013-09-06 05:29:00,68.0,63.3,30.08,SSW,202,0.0,8.0,85,0.00,,,-99.99,Weather View 32 v60,2013-09-06 10:29:00,
2013-09-06 05:44:00,68.0,63.3,30.08,SW,225,0.0,8.0,85,0.00,,,-99.99,Weather View 32 v60,2013-09-06 10:44:00,
2013-09-06 05:59:00,68.0,63.3,30.07,SW,225,0.0,8.0,85,0.00,,,-99.99,Weather View 32 v60,2013-09-06 10:59:00,
2013-09-06 06:14:00,68.0,63.3,30.07,WSW,247,1.0,8.0,85,0.00,,,-99.99,Weather View 32 v60,2013-09-06 11:14:00,
2013-09-06 06:29:00,68.0,63.3,30.07,SSW,202,0.0,7.0,85,0.00,,,-99.99,Weather View 32 v60,2013-09-06 11:29:00,
2013-09-06 06:44:00,68.0,63.3,30.07,WNW,292,0.0,7.0,85,0.00,,,-99.99,Weather View 32 v60,2013-09-06 11:44:00,
2013-09-06 06:59:00,68.0,63.3,30.07,South,180,0.0,7.0,85,0.00,,,-99.99,Weather View 32 v60,2013-09-06 11:59:00,
2013-09-06 07:14:00,68.0,63.0,30.07,SW,225,0.0,7.0,84,0.00,,,-99.99,Weather View 32 v60,2013-09-06 12:14:00,
2013-09-06 07:29:00,68.0,63.3,30.06,West,270,0.0,7.0,85,0.00,,,-99.99,Weather View 32 v60,2013-09-06 12:29:00,
2013-09-06 07:44:00,68.0,63.0,30.06,SSW,202,0.0,8.0,84,0.00,,,-99.99,Weather View 32 v60,2013-09-06 12:44:00,
2013-09-06 07:50:00,68.0,63.0,30.06,SSW,202,0.0,8.0,84,0.00,,,-99.99,Weather View 32 v60,2013-09-06 12:50:00,
2013-09-06 07:59:00,69.0,63.6,30.06,SSW,202,0.0,8.0,83,0.00,,,-99.99,Weather View 32 v60,2013-09-06 12:59:00,
2013-09-06 08:14:00,71.0,64.9,30.05,WSW,247,5.0,8.0,81,0.00,,,-99.99,Weather View 32 v60,2013-09-06 13:14:00,
2013-09-06 08:29:00,72.0,64.7,30.04,SSW,202,1.0,8.0,78,0.00,,,-99.99,Weather View 32 v60,2013-09-06 13:29:00,
2013-09-06 08:44:00,73.0,65.0,30.03,SE,135,2.0,7.0,76,0.00,,,-99.99,Weather View 32 v60,2013-09-06 13:44:00,
2013-09-06 08:50:00,73.0,65.0,30.03,SE,135,2.0,7.0,76,0.00,,,-99.99,Weather View 32 v60,2013-09-06 13:50:00,
2013-09-06 08:59:00,73.0,64.6,30.03,SSW,202,0.0,11.0,75,0.00,,,-99.99,Weather View 32 v60,2013-09-06 13:59:00,
2013-09-06 09:14:00,74.0,65.5,30.02,SSW,202,0.0,11.0,75,0.00,,,-99.99,Weather View 32 v60,2013-09-06 14:14:00,
2013-09-06 09:29:00,76.0,66.7,30.01,South,180,0.0,11.0,73,0.00,,,-99.99,Weather View 32 v60,2013-09-06 14:29:00,
2013-09-06 09:44:00,77.0,66.8,30.01,SSW,202,2.0,11.0,71,0.00,,,-99.99,Weather View 32 v60,2013-09-06 14:44:00,
2013-09-06 09:51:00,77.0,66.8,30.01,SSW,202,2.0,11.0,71,0.00,,,-99.99,Weather View 32 v60,2013-09-06 14:51:00,
2013-09-06 09:59:00,77.0,66.4,30.00,South,180,0.0,10.0,70,0.00,,,-99.99,Weather View 32 v60,2013-09-06 14:59:00,
2013-09-06 10:14:00,78.0,67.8,29.99,SSE,157,0.0,11.0,71,0.00,,,-99.99,Weather View 32 v60,2013-09-06 15:14:00,
2013-09-06 10:29:00,79.0,67.5,29.99,SW,225,5.0,11.0,68,0.00,,,-99.99,Weather View 32 v60,2013-09-06 15:29:00,
2013-09-06 10:44:00,79.0,67.1,29.99,SW,225,10.0,13.0,67,0.00,,,-99.99,Weather View 32 v60,2013-09-06 15:44:00,
2013-09-06 10:51:00,79.0,67.1,29.99,SW,225,10.0,13.0,67,0.00,,,-99.99,Weather View 32 v60,2013-09-06 15:51:00,
2013-09-06 10:59:00,80.0,68.0,29.98,SW,225,4.0,13.0,67,0.00,,,-99.99,Weather View 32 v60,2013-09-06 15:59:00,
2013-09-06 11:14:00,81.0,68.5,29.97,WSW,247,5.0,13.0,66,0.00,,,-99.99,Weather View 32 v60,2013-09-06 16:14:00,
2013-09-06 11:29:00,82.0,69.0,29.96,SW,225,0.0,13.0,65,0.00,,,-99.99,Weather View 32 v60,2013-09-06 16:29:00,
2013-09-06 11:44:00,82.0,69.5,29.96,ENE,67,0.0,12.0,66,0.00,,,-99.99,Weather View 32 v60,2013-09-06 16:44:00,
2013-09-06 11:52:00,82.0,69.5,29.96,ENE,67,0.0,12.0,66,0.00,,,-99.99,Weather View 32 v60,2013-09-06 16:52:00,
2013-09-06 11:59:00,82.0,69.0,29.96,SW,225,4.0,14.0,65,0.00,,,-99.99,Weather View 32 v60,2013-09-06 16:59:00,
2013-09-06 12:14:00,83.0,69.5,29.94,West,270,2.0,14.0,64,0.00,,,-99.99,Weather View 32 v60,2013-09-06 17:14:00,
2013-09-06 12:29:00,84.0,70.5,29.93,WSW,247,3.0,14.0,64,0.00,,,-99.99,Weather View 32 v60,2013-09-06 17:29:00,
2013-09-06 12:44:00,84.0,70.9,29.93,SSW,202,3.0,14.0,65,0.00,,,-99.99,Weather View 32 v60,2013-09-06 17:44:00,
2013-09-06 12:52:00,84.0,70.9,29.93,SSW,202,3.0,14.0,65,0.00,,,-99.99,Weather View 32 v60,2013-09-06 17:52:00,
2013-09-06 12:59:00,84.0,71.8,29.92,SSW,202,0.0,13.0,67,0.00,,,-99.99,Weather View 32 v60,2013-09-06 17:59:00,
2013-09-06 13:14:00,85.0,71.9,29.91,South,180,0.0,12.0,65,0.00,,,-99.99,Weather View 32 v60,2013-09-06 18:14:00,
2013-09-06 13:29:00,84.0,70.9,29.91,SE,135,3.0,12.0,65,0.00,,,-99.99,Weather View 32 v60,2013-09-06 18:29:00,
2013-09-06 13:44:00,86.0,71.9,29.91,SSW,202,5.0,13.0,63,0.00,,,-99.99,Weather View 32 v60,2013-09-06 18:44:00,
2013-09-06 13:53:00,86.0,71.9,29.91,SSW,202,5.0,13.0,63,0.00,,,-99.99,Weather View 32 v60,2013-09-06 18:53:00,
2013-09-06 13:59:00,86.0,71.9,29.89,SSW,202,3.0,13.0,63,0.00,,,-99.99,Weather View 32 v60,2013-09-06 18:59:00,
2013-09-06 14:14:00,86.0,71.9,29.89,ESE,112,1.0,13.0,63,0.00,,,-99.99,Weather View 32 v60,2013-09-06 19:14:00,
2013-09-06 14:29:00,88.0,72.8,29.88,WSW,247,0.0,13.0,61,0.00,,,-99.99,Weather View 32 v60,2013-09-06 19:29:00,
2013-09-06 14:44:00,89.0,72.7,29.87,West,270,0.0,11.0,59,0.00,,,-99.99,Weather View 32 v60,2013-09-06 19:44:00,
2013-09-06 14:53:00,89.0,72.7,29.87,West,270,0.0,11.0,59,0.00,,,-99.99,Weather View 32 v60,2013-09-06 19:53:00,
2013-09-06 14:59:00,90.0,73.2,29.86,SW,225,7.0,11.0,58,0.00,,,-99.99,Weather View 32 v60,2013-09-06 19:59:00,
2013-09-06 15:14:00,89.0,71.7,29.85,ESE,112,0.0,13.0,57,0.00,,,-99.99,Weather View 32 v60,2013-09-06 20:14:00,
2013-09-06 15:29:00,89.0,71.7,29.85,West,270,0.0,13.0,57,0.00,,,-99.99,Weather View 32 v60,2013-09-06 20:29:00,
2013-09-06 15:44:00,90.0,72.1,29.85,ESE,112,0.0,13.0,56,0.00,,,-99.99,Weather View 32 v60,2013-09-06 20:44:00,
2013-09-06 15:54:00,90.0,72.1,29.85,ESE,112,0.0,13.0,56,0.00,,,-99.99,Weather View 32 v60,2013-09-06 20:54:00,
2013-09-06 15:59:00,89.0,72.7,29.85,South,180,6.0,13.0,59,0.00,,,-99.99,Weather View 32 v60,2013-09-06 20:59:00,
2013-09-06 16:14:00,88.0,72.3,29.85,WSW,247,2.0,12.0,60,0.00,,,-99.99,Weather View 32 v60,2013-09-06 21:14:00,
2013-09-06 16:29:00,88.0,71.8,29.85,South,180,0.0,12.0,59,0.00,,,-99.99,Weather View 32 v60,2013-09-06 21:29:00,
2013-09-06 16:44:00,88.0,71.8,29.85,WSW,247,0.0,12.0,59,0.00,,,-99.99,Weather View 32 v60,2013-09-06 21:44:00,
2013-09-06 16:59:00,88.0,72.3,29.85,SSW,202,8.0,14.0,60,0.00,,,-99.99,Weather View 32 v60,2013-09-06 21:59:00,
2013-09-06 17:14:00,88.0,73.8,29.84,SW,225,3.0,14.0,63,0.00,,,-99.99,Weather View 32 v60,2013-09-06 22:14:00,
2013-09-06 17:29:00,87.0,73.3,29.85,SSE,157,0.0,14.0,64,0.00,,,-99.99,Weather View 32 v60,2013-09-06 22:29:00,
2013-09-06 17:44:00,87.0,73.8,29.84,ESE,112,3.0,14.0,65,0.00,,,-99.99,Weather View 32 v60,2013-09-06 22:44:00,
2013-09-06 17:55:00,87.0,73.8,29.84,ESE,112,3.0,14.0,65,0.00,,,-99.99,Weather View 32 v60,2013-09-06 22:55:00,
2013-09-06 18:14:00,85.0,73.2,29.85,SSE,157,0.0,14.0,68,0.00,,,-99.99,Weather View 32 v60,2013-09-06 23:14:00,
2013-09-06 18:29:00,85.0,73.6,29.85,SW,225,0.0,12.0,69,0.00,,,-99.99,Weather View 32 v60,2013-09-06 23:29:00,
2013-09-06 18:44:00,84.0,73.1,29.85,SSE,157,0.0,12.0,70,0.00,,,-99.99,Weather View 32 v60,2013-09-06 23:44:00,
2013-09-06 18:56:00,84.0,73.1,29.85,SSE,157,0.0,12.0,70,0.00,,,-99.99,Weather View 32 v60,2013-09-06 23:56:00,
2013-09-06 19:14:00,83.0,72.6,29.85,SSW,202,0.0,12.0,71,0.00,,,-99.99,Weather View 32 v60,2013-09-07 00:14:00,
2013-09-06 19:29:00,83.0,73.0,29.86,NNE,22,0.0,12.0,72,0.00,,,-99.99,Weather View 32 v60,2013-09-07 00:29:00,
2013-09-06 19:44:00,82.0,73.3,29.86,South,180,3.0,12.0,75,0.00,,,-99.99,Weather View 32 v60,2013-09-07 00:44:00,
2013-09-06 19:56:00,82.0,73.3,29.86,South,180,3.0,12.0,75,0.00,,,-99.99,Weather View 32 v60,2013-09-07 00:56:00,
2013-09-06 20:14:00,81.0,73.5,29.86,West,270,0.0,9.0,78,0.00,,,-99.99,Weather View 32 v60,2013-09-07 01:14:00,
2013-09-06 20:29:00,80.0,72.9,29.87,South,180,3.0,9.0,79,0.00,,,-99.99,Weather View 32 v60,2013-09-07 01:29:00,
2013-09-06 20:44:00,80.0,73.6,29.87,West,270,0.0,9.0,81,0.00,,,-99.99,Weather View 32 v60,2013-09-07 01:44:00,
2013-09-06 20:57:00,80.0,73.6,29.87,West,270,0.0,9.0,81,0.00,,,-99.99,Weather View 32 v60,2013-09-07 01:57:00,
2013-09-06 21:14:00,79.0,72.6,29.88,ESE,112,2.0,9.0,81,0.00,,,-99.99,Weather View 32 v60,2013-09-07 02:14:00,
2013-09-06 21:29:00,78.0,72.0,29.88,South,180,0.0,9.0,82,0.00,,,-99.99,Weather View 32 v60,2013-09-07 02:29:00,
2013-09-06 21:44:00,78.0,72.4,29.89,NNE,22,0.0,9.0,83,0.00,,,-99.99,Weather View 32 v60,2013-09-07 02:44:00,
2013-09-06 21:57:00,78.0,72.4,29.89,NNE,22,0.0,9.0,83,0.00,,,-99.99,Weather View 32 v60,2013-09-07 02:57:00,
2013-09-06 22:14:00,77.0,71.4,29.89,SE,135,0.0,8.0,83,0.00,,,-99.99,Weather View 32 v60,2013-09-07 03:14:00,
2013-09-06 22:29:00,77.0,71.4,29.89,NE,45,0.0,7.0,83,0.00,,,-99.99,Weather View 32 v60,2013-09-07 03:29:00,
2013-09-06 22:44:00,77.0,71.4,29.89,WSW,247,0.0,8.0,83,0.00,,,-99.99,Weather View 32 v60,2013-09-07 03:44:00,
2013-09-06 22:58:00,77.0,71.4,29.89,WSW,247,0.0,8.0,83,0.00,,,-99.99,Weather View 32 v60,2013-09-07 03:58:00,
2013-09-06 23:14:00,76.0,70.8,29.90,SE,135,0.0,8.0,84,0.00,,,-99.99,Weather View 32 v60,2013-09-07 04:14:00,
2013-09-06 23:29:00,76.0,70.8,29.89,West,270,0.0,8.0,84,0.00,,,-99.99,Weather View 32 v60,2013-09-07 04:29:00,
2013-09-06 23:44:00,75.0,69.5,29.90,WNW,292,0.0,5.0,83,0.00,,,-99.99,Weather View 32 v60,2013-09-07 04:44:00,
2013-09-06 23:59:00,75.0,69.5,29.90,WNW,292,0.0,5.0,83,0.00,,,-99.99,Weather View 32 v60,2013-09-07 04:59:00,